SCP
0 0 0 0 0 0 0 0 0 0 -0 -0 0 0 -0 -0 -0 -0 0 0 0 0 0 0 0 0 0 0 0 0 0 0 0 0 0 0 0 -0 0 0 0 0 0 0
0 0 0 0 -0 0 0 -0 -0 -0 -0 -0 0 0 0 0 -0 -0 0 0 0 0 0 0 0 0 0 0 0 0 0 0 0 0 0 0 0 0 0 0 0 0 0 0
0 0 0 0 0 0 0 -0 -0 0 0 0 0 0 0 0 0 -0 0 0 0 0 0 0 0 0 0 0 0 0 0 0 0 0 0 0 0 0 0 0 0 0 0 0
0 -0 -0 -0 0 -0 -0 0 0 -0 0 0 0 0 0 0 0 -0 0 0 0 0 0 0 0 0 0 0 0 0 0 0 0 0 0 0 0 0 0 0 0 0 0 0
0 -0 -0 -0 0 0 -0 0 0 -0 0 0 0 0 0 0 0 0 -0 0 0 0 0 0 0 0 0 0 0 0 0 0 0 0 0 0 0 0 0 0 0 0 0 0
-0 -0 -0 -0 0 0 0 0 -0 -0 0 0 0 0 0 0 0 0 0 0 0 0 0 0 0 0 0 0 0 0 0 0 0 0 0 0 0 0 0 0 0 0 0 0
-0 -0 -0 0 -0 0 0 0 -0 -0 0 0 0 0 0 0 0 0 0 0 0 0 0 0 0 0 0 0 0 0 0 0 0 0 0 0 0 0 0 0 0 0 0 0
-0 -0 0 -0 -0 0 0 -0 -0 0 -0 0 0 0 0 0 0 0 0 0 0 0 0 0 0 0 0 0 0 0 0 0 0 0 0 0 0 0 0 0 0 0 0 0
0 0 -0 -0 -0 -0 0 -0 -0 -0 -0 -0 0 0 0 0 0 0 0 0 0 0 0 0 0 0 0 0 0 0 0 0 0 0 0 0 0 0 0 0 0 0 0 0
0 -0 -0 -0 -0 0 0 -0 -0 -0 -0 -0 -0 0 0 0 0 0 0 0 0 0 0 0 0 0 0 0 0 0 0 0 0 0 0 0 0 0 0 0 0 0 0 0
0 -0 0 -0 -0 0 0 0 -0 -0 -0 -0 -0 0 0 0 0 0 0 0 0 0 0 0 0 0 0 0 0 0 0 0 0 0 0 0 0 0 0 0 0 0 0 0
0 0 -0 -0 -0 0 0 -0 -0 -0 -0 -0 -0 -0 -0 0 0 0 0 0 0 0 0 0 0 0 0 0 0 0 0 0 0 0 0 0 0 0 0 0 0 0 0 0
0 -0 -0 -0 -0 -0 -0 -0 -0 -0 0 0 -0 0 -0 -0 -0 -0 0 0 0 0 0 0 0 0 0 0 0 0 0 0 0 0 0 0 0 0 0 0 0 0 0 0
0 -0 -0 -0 0 0 0 -0 -0 -0 0 0 0 0 0 -0 -0 -0 0 0 0 0 0 0 0 0 0 0 0 0 0 0 0 0 0 0 0 0 0 0 0 0 0 0
-0 -0 -0 -0 -0 -0 -0 -0 -0 -0 -0 -0 0 0 0 0 0 0 0 0 0 0 0 0 0 0 0 0 0 0 0 0 0 0 0 0 0 0 0 0 0 0 0 0
-0 -0 -0 -0 -0 -0 -0 -0 -0 -0 -0 -0 0 0 0 0 0 0 0 0 0 0 0 0 0 0 0 0 0 0 0 0 0 0 0 0 0 0 0 0 0 0 0 0
-0 -0 -0 -0 -0 -0 -0 0 0 0 0 0 0 0 0 0 0 0 0 0 0 0 0 0 0 0 0 0 0 0 0 0 0 0 0 0 0 0 0 0 0 0 0 0
-0 -0 0 0 0 0 0 0 0 0 0 0 0 0 0 0 0 0 0 0 0 0 0 0 0 0 0 0 0 0 0 0 0 0 0 0 0 0 0 0 0 0 0 0
-0 0 0 0 0 0 0 0 0 0 0 0 0 0 0 0 0 0 0 0 0 0 0 0 0 0 0 0 0 0 0 0 0 0 0 0 0 0 0 0 0 0 0 0
0 0 0 0 0 0 0 0 0 0 0 0 0 0 0 0 0 0 0 0 0 0 0 0 0 0 0 0 0 0 0 0 0 0 0 0 0 0 0 0 0 0 0 0
0 0 0 0 0 0 0 0 0 0 0 0 0 0 0 0 0 0 0 0 0 0 0 0 0 0 0 0 0 0 0 0 0 0 0 0 0 0 0 0 0 0 0 0
0 0 0 0 0 0 0 0 0 0 0 0 0 0 0 0 0 0 0 0 0 0 0 0 0 0 0 0 0 0 0 0 0 0 0 0 0 0 0 0 0 0 0 0
0 0 0 0 0 0 0 0 0 0 0 0 0 0 0 0 0 0 0 0 0 0 0 0 0 0 0 0 0 0 0 0 0 0 0 0 0 0 0 0 0 0 0 0
0 0 0 0 0 0 0 0 0 0 0 0 0 0 0 0 0 0 0 0 0 0 0 0 0 0 0 0 0 0 0 0 0 0 0 0 0 0 0 0 0 0 0 0
0 0 0 0 0 0 0 0 0 0 0 0 0 0 0 0 0 0 0 0 0 0 0 0 0 0 0 0 0 0 0 0 0 0 0 0 0 0 0 0 0 0 0 0
0 0 0 0 0 0 0 0 0 0 0 0 0 0 0 0 0 0 0 0 0 0 0 0 0 0 0 0 0 0 0 0 0 0 0 0 0 0 0 0 0 0 0 0
0 0 0 0 0 0 0 0 0 0 0 0 0 0 0 0 0 0 0 0 0 0 0 0 0 0 0 0 0 0 0 0 0 0 0 0 0 0 0 0 0 0 0 0
Wind_Speed_500mb
4 8 7 6 13 13 15 25 14 32 32 43 37 36 15 16 24 35 45 46 43 41 35 34 35 33 31 37 35 30 27 28 27 25 26 26 24 27 27 27 25 23 23 24
4 2 7 11 22 21 19 19 26 34 41 28 27 34 13 20 27 35 36 36 35 33 33 36 39 34 33 35 28 26 22 22 22 25 27 28 26 24 23 24 25 26 27 26
5 5 13 7 1 8 13 17 18 25 29 33 17 23 21 21 29 34 30 29 32 31 29 28 33 35 31 29 32 32 29 25 24 22 24 26 25 25 24 24 25 26 28 29
3 9 3 4 16 7 9 23 22 27 33 26 10 31 31 23 27 39 31 27 29 32 31 29 32 36 39 32 29 30 29 24 23 23 24 23 24 25 27 28 30 31 33 36
3 3 9 3 9 11 18 29 27 25 35 42 40 43 36 30 35 39 39 30 36 36 41 37 39 42 44 41 35 31 26 18 18 19 18 18 19 19 22 24 26 29 34 36
2 3 4 4 20 28 17 7 30 32 37 32 49 9 8 26 30 41 45 38 35 41 49 56 53 46 44 47 36 33 27 21 20 18 16 13 11 11 13 16 17 18 20 24
4 4 10 21 32 27 7 11 24 43 38 63 22 26 37 33 39 45 44 45 37 44 51 50 51 47 51 50 51 46 35 30 28 28 25 23 19 18 15 13 14 15 10 6
5 6 6 34 11 10 6 10 28 39 44 48 54 48 45 45 45 44 46 42 45 45 42 44 46 42 43 45 42 38 33 31 33 33 29 26 21 22 20 18 16 16 13 11
7 5 15 27 25 23 30 26 33 34 32 40 49 45 42 43 43 45 45 45 43 43 42 42 41 37 36 37 28 26 18 21 26 25 23 23 20 20 18 17 16 17 15 15
4 12 23 30 30 32 31 34 36 34 32 36 42 37 39 41 43 44 45 45 41 40 43 41 38 34 35 27 26 24 24 29 31 30 29 28 26 25 23 24 23 23 23 23
3 17 17 36 33 26 29 31 37 37 37 36 36 40 39 44 46 45 44 44 44 46 46 43 34 31 24 23 22 22 26 30 32 36 38 37 37 38 36 35 30 28 30 29
5 8 26 20 25 25 31 32 30 31 37 39 37 39 38 45 44 43 44 41 43 43 41 42 40 38 33 27 24 25 28 30 32 34 34 36 35 36 37 33 27 29 30 28
7 34 37 32 28 26 31 30 31 34 35 35 35 36 38 42 41 41 42 41 43 43 42 41 39 41 41 36 32 31 32 31 30 30 30 30 32 32 32 29 26 26 25 25
19 26 27 27 15 21 26 29 32 36 36 36 35 36 38 40 37 39 41 39 35 34 36 36 36 39 39 36 34 32 32 29 26 27 27 26 28 26 24 22 21 19 18 17
29 29 28 22 22 23 24 24 32 36 34 36 34 36 35 36 36 36 33 31 29 28 31 30 30 32 31 30 27 26 25 25 24 22 22 21 18 16 16 16 14 13 13 12
17 22 22 24 24 24 24 26 32 31 32 33 34 34 35 33 32 31 29 27 24 30 30 27 27 29 26 24 23 21 20 19 17 16 14 12 13 13 13 12 11 10 10 10
8 14 16 21 22 24 26 24 26 28 29 30 30 28 26 25 23 23 24 25 26 25 25 22 24 22 20 18 16 15 15 14 13 12 10 11 10 9 8 8 7 8 9 8
19 18 17 18 21 25 26 28 29 31 32 31 27 23 21 19 21 21 21 22 20 19 19 22 21 20 18 16 15 13 12 11 9 8 7 7 7 6 7 7 8 10 10 11
16 20 22 26 28 32 34 34 33 33 32 28 22 21 22 22 21 21 21 17 14 15 19 21 21 20 17 15 12 11 9 8 6 6 6 7 6 6 7 8 9 9 9 9
28 31 34 39 38 36 38 34 30 29 28 22 21 20 19 20 19 18 17 17 18 19 20 19 17 15 14 13 11 11 10 8 7 7 7 7 7 7 7 7 7 7 7 8
36 35 34 34 36 35 33 29 22 22 22 20 17 18 19 20 19 18 15 14 14 14 15 16 16 14 14 12 12 10 9 8 7 6 6 6 6 6 7 7 8 10 11 11
35 34 33 29 25 25 24 21 19 21 20 19 21 23 24 23 21 19 17 15 14 15 14 15 15 13 12 10 10 10 9 9 8 8 8 8 8 9 10 12 13 14 14 14
30 26 23 20 19 19 18 16 14 14 14 15 17 20 23 25 23 19 16 15 15 16 16 16 16 15 14 13 12 11 11 11 11 10 9 10 10 12 13 15 16 16 16 16
21 20 18 16 14 11 10 7 7 8 10 13 15 19 24 25 22 17 15 14 14 16 17 16 17 17 16 15 14 14 13 13 12 12 13 13 14 15 16 17 18 18 18 18
16 12 9 5 4 6 7 8 9 11 11 12 14 17 23 24 19 16 14 13 13 14 16 17 17 16 16 16 16 16 16 16 15 14 14 15 15 16 18 20 20 20 19 20
9 8 6 3 2 6 10 14 13 14 15 17 17 18 22 18 15 12 11 12 13 12 14 17 17 18 17 18 19 19 21 22 21 19 18 19 20 21 22 21 20 21 22 23
8 5 2 2 7 13 16 17 16 13 12 13 13 18 17 13 12 11 12 15 16 17 18 18 21 23 21 21 21 21 24 24 21 20 22 25 25 23 23 24 25 27 27 28
Wind_Direction_500mb
53 139 165 217 240 241 234 252 256 278 285 290 302 304 329 46 37 36 32 17 30 43 104 133 143 146 156 163 158 161 167 180 186 182 183 185 189 196 201 206 206 209 211 210
287 94 155 243 248 256 260 260 254 271 281 288 315 312 98 71 61 51 33 18 27 43 79 109 125 137 145 154 157 163 175 192 193 193 197 205 210 212 210 213 216 219 226 233
228 321 304 254 49 314 281 284 290 291 298 320 320 49 57 73 77 69 44 19 31 42 61 88 112 126 137 154 163 174 184 188 196 190 193 202 207 211 220 228 234 236 240 243
279 295 166 132 317 293 293 297 331 318 311 307 130 96 63 50 87 78 65 39 50 62 68 78 103 122 123 133 161 162 169 174 179 188 194 203 210 213 216 220 225 227 234 239
263 259 286 96 37 353 342 316 6 321 304 287 142 103 59 53 68 77 76 61 63 71 77 79 91 105 113 118 132 133 124 133 139 152 169 186 200 208 217 219 224 231 236 240
289 348 323 57 336 319 301 294 2 344 331 284 161 126 77 59 70 81 76 69 70 78 81 81 77 87 101 97 100 106 117 118 123 130 136 144 152 168 182 202 219 213 221 234
230 279 275 358 325 318 336 348 3 14 20 59 65 73 96 87 68 73 75 76 69 70 70 76 77 78 81 80 82 83 90 95 100 103 107 110 113 118 123 126 139 150 161 166
183 206 282 354 357 25 354 65 55 43 41 62 80 82 82 75 69 65 66 68 70 71 65 67 73 77 83 74 71 77 79 84 88 88 89 94 96 95 95 96 98 94 94 88
338 45 50 46 62 39 53 66 66 67 66 78 79 75 74 72 68 63 62 62 64 68 68 65 65 64 70 67 66 65 64 76 78 76 79 83 88 91 101 102 98 93 84 74
321 62 58 49 51 55 63 69 74 77 82 83 82 78 74 71 65 60 59 58 57 61 64 64 61 62 66 72 69 73 80 82 82 84 83 82 87 91 96 93 92 93 89 78
61 126 91 42 45 51 58 64 71 74 73 74 80 77 77 73 69 68 68 67 65 65 66 66 70 76 78 77 77 81 82 83 86 84 80 81 84 85 81 79 79 83 81 85
23 345 85 55 50 58 65 61 63 67 66 65 69 74 76 74 72 74 73 73 72 72 73 72 72 75 73 72 79 85 88 85 81 81 82 83 84 88 86 86 85 92 95 92
75 86 99 88 70 66 72 71 74 74 72 72 72 77 79 80 78 78 76 72 69 67 67 67 66 66 65 64 67 72 76 76 78 79 81 82 82 82 81 81 77 86 89 85
130 112 66 72 77 66 65 71 74 77 77 75 78 82 83 83 83 79 74 70 68 68 68 66 66 66 61 57 58 66 73 77 80 81 78 77 76 75 76 79 77 71 66 61
67 86 99 102 82 71 68 71 74 72 77 80 83 85 86 86 82 78 77 72 69 69 69 66 65 65 61 58 54 56 61 66 64 65 65 63 66 63 57 53 50 45 43 39
87 87 88 82 79 77 76 71 78 77 80 84 84 82 80 80 80 78 75 72 64 59 58 55 57 57 53 52 49 48 50 56 54 52 52 46 43 39 36 34 31 30 26 25
126 80 82 81 83 82 79 82 87 89 93 91 87 83 80 74 71 67 60 53 47 45 44 43 46 42 37 37 39 39 38 34 33 31 27 29 28 22 15 7 6 15 22 24
94 96 96 99 101 99 97 97 96 98 94 89 86 81 76 72 63 54 47 40 31 25 28 33 33 29 23 20 24 24 23 20 16 16 25 26 18 18 22 25 36 45 50 47
102 99 102 102 104 107 105 103 100 94 87 80 76 69 59 54 51 45 41 29 23 20 28 27 26 20 16 18 29 28 28 26 21 26 32 37 33 42 49 55 56 54 47 37
112 110 110 108 106 103 102 96 92 89 83 71 59 56 49 46 42 36 29 21 25 28 25 19 18 14 16 19 29 26 26 24 24 28 36 31 28 31 34 32 30 24 16 5
113 111 109 109 108 104 98 91 82 78 71 65 52 48 42 32 23 19 15 10 15 11 6 2 359 359 2 8 12 14 16 18 16 14 13 7 3 355 349 345 343 341 340 339
116 114 109 102 98 91 84 79 69 65 63 54 45 37 30 21 14 11 10 10 2 358 356 354 354 353 354 359 359 1 359 358 355 354 350 343 338 332 328 326 325 324 323 320
118 110 103 94 85 77 72 67 58 49 40 32 25 20 17 14 10 8 4 359 357 354 354 351 351 350 348 349 346 341 337 333 328 324 318 314 312 313 315 316 316 317 317 316
121 113 106 101 92 82 72 56 30 14 7 6 1 3 5 1 359 359 358 356 357 358 359 358 1 3 2 356 354 351 347 340 334 326 317 312 310 310 311 312 314 315 313 313
124 122 124 114 69 29 11 349 329 317 315 327 332 335 344 345 347 350 351 352 350 350 353 355 355 352 348 347 343 343 340 335 328 324 322 319 317 314 312 310 306 304 306 309
139 159 161 135 39 355 341 335 329 315 306 305 307 305 320 327 334 343 350 350 343 335 335 339 340 338 333 330 327 323 326 323 313 304 303 306 307 307 309 310 310 308 308 309
157 157 166 310 320 321 321 320 319 317 315 310 290 282 304 309 321 332 333 336 334 328 319 316 319 317 312 310 311 312 318 318 311 301 300 301 299 297 301 303 303 304 303 303
Wind_Speed_850mb
4 8 7 6 13 13 15 25 14 32 32 43 37 36 15 16 24 35 45 46 43 41 35 34 35 33 31 37 35 30 27 28 27 25 26 26 24 27 27 27 25 23 23 24
4 2 7 11 22 21 19 19 26 34 41 28 27 34 13 20 27 35 36 36 35 33 33 36 39 34 33 35 28 26 22 22 22 25 27 28 26 24 23 24 25 26 27 26
5 5 13 7 1 8 13 17 18 25 29 33 17 23 21 21 29 34 30 29 32 31 29 28 33 35 31 29 32 32 29 25 24 22 24 26 25 25 24 24 25 26 28 29
3 9 3 4 16 7 9 23 22 27 33 26 10 31 31 23 27 39 31 27 29 32 31 29 32 36 39 32 29 30 29 24 23 23 24 23 24 25 27 28 30 31 33 36
3 3 9 3 9 11 18 29 27 25 35 42 40 43 36 30 35 39 39 30 36 36 41 37 39 42 44 41 35 31 26 18 18 19 18 18 19 19 22 24 26 29 34 36
2 3 4 4 20 28 17 7 30 32 37 32 49 9 8 26 30 41 45 38 35 41 49 56 53 46 44 47 36 33 27 21 20 18 16 13 11 11 13 16 17 18 20 24
4 4 10 21 32 27 7 11 24 43 38 63 22 26 37 33 39 45 44 45 37 44 51 50 51 47 51 50 51 46 35 30 28 28 25 23 19 18 15 13 14 15 10 6
5 6 6 34 11 10 6 10 28 39 44 48 54 48 45 45 45 44 46 42 45 45 42 44 46 42 43 45 42 38 33 31 33 33 29 26 21 22 20 18 16 16 13 11
7 5 15 27 25 23 30 26 33 34 32 40 49 45 42 43 43 45 45 45 43 43 42 42 41 37 36 37 28 26 18 21 26 25 23 23 20 20 18 17 16 17 15 15
4 12 23 30 30 32 31 34 36 34 32 36 42 37 39 41 43 44 45 45 41 40 43 41 38 34 35 27 26 24 24 29 31 30 29 28 26 25 23 24 23 23 23 23
3 17 17 36 33 26 29 31 37 37 37 36 36 40 39 44 46 45 44 44 44 46 46 43 34 31 24 23 22 22 26 30 32 36 38 37 37 38 36 35 30 28 30 29
5 8 26 20 25 25 31 32 30 31 37 39 37 39 38 45 44 43 44 41 43 43 41 42 40 38 33 27 24 25 28 30 32 34 34 36 35 36 37 33 27 29 30 28
7 34 37 32 28 26 31 30 31 34 35 35 35 36 38 42 41 41 42 41 43 43 42 41 39 41 41 36 32 31 32 31 30 30 30 30 32 32 32 29 26 26 25 25
19 26 27 27 15 21 26 29 32 36 36 36 35 36 38 40 37 39 41 39 35 34 36 36 36 39 39 36 34 32 32 29 26 27 27 26 28 26 24 22 21 19 18 17
29 29 28 22 22 23 24 24 32 36 34 36 34 36 35 36 36 36 33 31 29 28 31 30 30 32 31 30 27 26 25 25 24 22 22 21 18 16 16 16 14 13 13 12
17 22 22 24 24 24 24 26 32 31 32 33 34 34 35 33 32 31 29 27 24 30 30 27 27 29 26 24 23 21 20 19 17 16 14 12 13 13 13 12 11 10 10 10
8 14 16 21 22 24 26 24 26 28 29 30 30 28 26 25 23 23 24 25 26 25 25 22 24 22 20 18 16 15 15 14 13 12 10 11 10 9 8 8 7 8 9 8
19 18 17 18 21 25 26 28 29 31 32 31 27 23 21 19 21 21 21 22 20 19 19 22 21 20 18 16 15 13 12 11 9 8 7 7 7 6 7 7 8 10 10 11
16 20 22 26 28 32 34 34 33 33 32 28 22 21 22 22 21 21 21 17 14 15 19 21 21 20 17 15 12 11 9 8 6 6 6 7 6 6 7 8 9 9 9 9
28 31 34 39 38 36 38 34 30 29 28 22 21 20 19 20 19 18 17 17 18 19 20 19 17 15 14 13 11 11 10 8 7 7 7 7 7 7 7 7 7 7 7 8
36 35 34 34 36 35 33 29 22 22 22 20 17 18 19 20 19 18 15 14 14 14 15 16 16 14 14 12 12 10 9 8 7 6 6 6 6 6 7 7 8 10 11 11
35 34 33 29 25 25 24 21 19 21 20 19 21 23 24 23 21 19 17 15 14 15 14 15 15 13 12 10 10 10 9 9 8 8 8 8 8 9 10 12 13 14 14 14
30 26 23 20 19 19 18 16 14 14 14 15 17 20 23 25 23 19 16 15 15 16 16 16 16 15 14 13 12 11 11 11 11 10 9 10 10 12 13 15 16 16 16 16
21 20 18 16 14 11 10 7 7 8 10 13 15 19 24 25 22 17 15 14 14 16 17 16 17 17 16 15 14 14 13 13 12 12 13 13 14 15 16 17 18 18 18 18
16 12 9 5 4 6 7 8 9 11 11 12 14 17 23 24 19 16 14 13 13 14 16 17 17 16 16 16 16 16 16 16 15 14 14 15 15 16 18 20 20 20 19 20
9 8 6 3 2 6 10 14 13 14 15 17 17 18 22 18 15 12 11 12 13 12 14 17 17 18 17 18 19 19 21 22 21 19 18 19 20 21 22 21 20 21 22 23
8 5 2 2 7 13 16 17 16 13 12 13 13 18 17 13 12 11 12 15 16 17 18 18 21 23 21 21 21 21 24 24 21 20 22 25 25 23 23 24 25 27 27 28
Wind_Direction_850mb
53 139 165 217 240 241 234 252 256 278 285 290 302 304 329 46 37 36 32 17 30 43 104 133 143 146 156 163 158 161 167 180 186 182 183 185 189 196 201 206 206 209 211 210
287 94 155 243 248 256 260 260 254 271 281 288 315 312 98 71 61 51 33 18 27 43 79 109 125 137 145 154 157 163 175 192 193 193 197 205 210 212 210 213 216 219 226 233
228 321 304 254 49 314 281 284 290 291 298 320 320 49 57 73 77 69 44 19 31 42 61 88 112 126 137 154 163 174 184 188 196 190 193 202 207 211 220 228 234 236 240 243
279 295 166 132 317 293 293 297 331 318 311 307 130 96 63 50 87 78 65 39 50 62 68 78 103 122 123 133 161 162 169 174 179 188 194 203 210 213 216 220 225 227 234 239
263 259 286 96 37 353 342 316 6 321 304 287 142 103 59 53 68 77 76 61 63 71 77 79 91 105 113 118 132 133 124 133 139 152 169 186 200 208 217 219 224 231 236 240
289 348 323 57 336 319 301 294 2 344 331 284 161 126 77 59 70 81 76 69 70 78 81 81 77 87 101 97 100 106 117 118 123 130 136 144 152 168 182 202 219 213 221 234
230 279 275 358 325 318 336 348 3 14 20 59 65 73 96 87 68 73 75 76 69 70 70 76 77 78 81 80 82 83 90 95 100 103 107 110 113 118 123 126 139 150 161 166
183 206 282 354 357 25 354 65 55 43 41 62 80 82 82 75 69 65 66 68 70 71 65 67 73 77 83 74 71 77 79 84 88 88 89 94 96 95 95 96 98 94 94 88
338 45 50 46 62 39 53 66 66 67 66 78 79 75 74 72 68 63 62 62 64 68 68 65 65 64 70 67 66 65 64 76 78 76 79 83 88 91 101 102 98 93 84 74
321 62 58 49 51 55 63 69 74 77 82 83 82 78 74 71 65 60 59 58 57 61 64 64 61 62 66 72 69 73 80 82 82 84 83 82 87 91 96 93 92 93 89 78
61 126 91 42 45 51 58 64 71 74 73 74 80 77 77 73 69 68 68 67 65 65 66 66 70 76 78 77 77 81 82 83 86 84 80 81 84 85 81 79 79 83 81 85
23 345 85 55 50 58 65 61 63 67 66 65 69 74 76 74 72 74 73 73 72 72 73 72 72 75 73 72 79 85 88 85 81 81 82 83 84 88 86 86 85 92 95 92
75 86 99 88 70 66 72 71 74 74 72 72 72 77 79 80 78 78 76 72 69 67 67 67 66 66 65 64 67 72 76 76 78 79 81 82 82 82 81 81 77 86 89 85
130 112 66 72 77 66 65 71 74 77 77 75 78 82 83 83 83 79 74 70 68 68 68 66 66 66 61 57 58 66 73 77 80 81 78 77 76 75 76 79 77 71 66 61
67 86 99 102 82 71 68 71 74 72 77 80 83 85 86 86 82 78 77 72 69 69 69 66 65 65 61 58 54 56 61 66 64 65 65 63 66 63 57 53 50 45 43 39
87 87 88 82 79 77 76 71 78 77 80 84 84 82 80 80 80 78 75 72 64 59 58 55 57 57 53 52 49 48 50 56 54 52 52 46 43 39 36 34 31 30 26 25
126 80 82 81 83 82 79 82 87 89 93 91 87 83 80 74 71 67 60 53 47 45 44 43 46 42 37 37 39 39 38 34 33 31 27 29 28 22 15 7 6 15 22 24
94 96 96 99 101 99 97 97 96 98 94 89 86 81 76 72 63 54 47 40 31 25 28 33 33 29 23 20 24 24 23 20 16 16 25 26 18 18 22 25 36 45 50 47
102 99 102 102 104 107 105 103 100 94 87 80 76 69 59 54 51 45 41 29 23 20 28 27 26 20 16 18 29 28 28 26 21 26 32 37 33 42 49 55 56 54 47 37
112 110 110 108 106 103 102 96 92 89 83 71 59 56 49 46 42 36 29 21 25 28 25 19 18 14 16 19 29 26 26 24 24 28 36 31 28 31 34 32 30 24 16 5
113 111 109 109 108 104 98 91 82 78 71 65 52 48 42 32 23 19 15 10 15 11 6 2 359 359 2 8 12 14 16 18 16 14 13 7 3 355 349 345 343 341 340 339
116 114 109 102 98 91 84 79 69 65 63 54 45 37 30 21 14 11 10 10 2 358 356 354 354 353 354 359 359 1 359 358 355 354 350 343 338 332 328 326 325 324 323 320
118 110 103 94 85 77 72 67 58 49 40 32 25 20 17 14 10 8 4 359 357 354 354 351 351 350 348 349 346 341 337 333 328 324 318 314 312 313 315 316 316 317 317 316
121 113 106 101 92 82 72 56 30 14 7 6 1 3 5 1 359 359 358 356 357 358 359 358 1 3 2 356 354 351 347 340 334 326 317 312 310 310 311 312 314 315 313 313
124 122 124 114 69 29 11 349 329 317 315 327 332 335 344 345 347 350 351 352 350 350 353 355 355 352 348 347 343 343 340 335 328 324 322 319 317 314 312 310 306 304 306 309
139 159 161 135 39 355 341 335 329 315 306 305 307 305 320 327 334 343 350 350 343 335 335 339 340 338 333 330 327 323 326 323 313 304 303 306 307 307 309 310 310 308 308 309
157 157 166 310 320 321 321 320 319 317 315 310 290 282 304 309 321 332 333 336 334 328 319 316 319 317 312 310 311 312 318 318 311 301 300 301 299 297 301 303 303 304 303 303